Time,TemperatureF,DewpointF,PressureIn,WindDirection,WindDirectionDegrees,WindSpeedMPH,WindSpeedGustMPH,Humidity,HourlyPrecipIn,Conditions,Clouds,dailyrainin,SoftwareType,DateUTC
2013-05-19 00:00:00,76.6,71.0,29.75,South,177,0.0,3.0,83,0.00,,,0.00,weatherlink.com 1.10,2013-05-19 05:00:00,
2013-05-19 00:15:00,76.4,71.0,29.75,South,182,0.0,6.0,83,0.00,,,0.00,weatherlink.com 1.10,2013-05-19 05:15:00,
2013-05-19 00:30:00,76.3,71.0,29.76,SSW,196,7.0,7.0,84,0.00,,,0.00,weatherlink.com 1.10,2013-05-19 05:30:00,
2013-05-19 00:45:00,74.4,63.0,29.82,WSW,242,3.0,26.0,67,0.00,,,0.00,weatherlink.com 1.10,2013-05-19 05:45:00,
2013-05-19 01:00:00,71.8,63.0,29.81,SW,230,2.0,25.0,73,0.01,,,0.01,weatherlink.com 1.10,2013-05-19 06:00:00,
2013-05-19 01:15:00,67.5,63.0,29.80,West,278,0.0,21.0,84,0.05,,,0.05,weatherlink.com 1.10,2013-05-19 06:15:00,
2013-05-19 01:30:00,65.5,63.0,29.77,WSW,254,0.0,3.0,90,0.11,,,0.11,weatherlink.com 1.10,2013-05-19 06:30:00,
2013-05-19 01:45:00,65.4,63.0,29.77,WSW,240,0.0,0.0,92,0.11,,,0.11,weatherlink.com 1.10,2013-05-19 06:45:00,
2013-05-19 02:00:00,65.3,63.0,29.75,WSW,240,0.0,0.0,93,0.10,,,0.11,weatherlink.com 1.10,2013-05-19 07:00:00,
2013-05-19 02:15:00,65.4,63.0,29.74,ESE,107,0.0,0.0,93,0.06,,,0.11,weatherlink.com 1.10,2013-05-19 07:15:00,
2013-05-19 02:30:00,65.4,63.0,29.72,ESE,119,0.0,4.0,93,0.00,,,0.11,weatherlink.com 1.10,2013-05-19 07:30:00,
2013-05-19 02:45:00,65.2,63.0,29.68,ESE,122,0.0,7.0,93,0.00,,,0.11,weatherlink.com 1.10,2013-05-19 07:45:00,
2013-05-19 03:00:00,65.3,63.0,29.71,SE,139,0.0,7.0,93,0.00,,,0.11,weatherlink.com 1.10,2013-05-19 08:00:00,
2013-05-19 03:15:00,65.3,63.0,29.71,ESE,123,0.0,0.0,93,0.00,,,0.11,weatherlink.com 1.10,2013-05-19 08:15:00,
2013-05-19 03:30:00,65.4,63.0,29.71,SE,130,0.0,1.0,92,0.00,,,0.11,weatherlink.com 1.10,2013-05-19 08:30:00,
2013-05-19 03:45:00,65.6,63.0,29.71,SE,132,0.0,0.0,91,0.00,,,0.11,weatherlink.com 1.10,2013-05-19 08:45:00,
2013-05-19 04:00:00,65.8,63.0,29.70,SE,138,0.0,2.0,91,0.00,,,0.11,weatherlink.com 1.10,2013-05-19 09:00:00,
2013-05-19 04:15:00,66.7,63.0,29.69,SE,126,2.0,7.0,88,0.00,,,0.11,weatherlink.com 1.10,2013-05-19 09:15:00,
2013-05-19 04:30:00,67.4,63.0,29.69,ESE,111,3.0,7.0,85,0.00,,,0.11,weatherlink.com 1.10,2013-05-19 09:30:00,
2013-05-19 04:45:00,68.0,63.0,29.69,SE,138,0.0,10.0,85,0.00,,,0.11,weatherlink.com 1.10,2013-05-19 09:45:00,
2013-05-19 05:00:00,68.6,64.0,29.68,SSE,163,0.0,6.0,86,0.00,,,0.11,weatherlink.com 1.10,2013-05-19 10:00:00,
2013-05-19 05:15:00,69.4,66.0,29.68,SE,135,1.0,5.0,88,0.00,,,0.11,weatherlink.com 1.10,2013-05-19 10:15:00,
2013-05-19 05:30:00,70.2,67.0,29.68,SSE,157,0.0,6.0,88,0.00,,,0.11,weatherlink.com 1.10,2013-05-19 10:30:00,
2013-05-19 05:45:00,70.8,67.0,29.70,SSE,167,0.0,8.0,88,0.00,,,0.11,weatherlink.com 1.10,2013-05-19 10:45:00,
2013-05-19 06:00:00,70.7,67.0,29.71,South,178,0.0,1.0,88,0.00,,,0.11,weatherlink.com 1.10,2013-05-19 11:00:00,
2013-05-19 06:15:00,70.3,67.0,29.72,SSW,192,0.0,1.0,89,0.00,,,0.11,weatherlink.com 1.10,2013-05-19 11:15:00,
2013-05-19 06:30:00,70.7,67.0,29.72,SE,146,0.0,3.0,89,0.00,,,0.11,weatherlink.com 1.10,2013-05-19 11:30:00,
2013-05-19 06:45:00,71.1,67.0,29.72,SE,146,0.0,1.0,88,0.00,,,0.11,weatherlink.com 1.10,2013-05-19 11:45:00,
2013-05-19 07:00:00,71.2,68.0,29.73,SE,146,0.0,0.0,88,0.00,,,0.11,weatherlink.com 1.10,2013-05-19 12:00:00,
2013-05-19 07:15:00,71.7,68.0,29.72,SE,146,0.0,0.0,87,0.00,,,0.11,weatherlink.com 1.10,2013-05-19 12:15:00,
2013-05-19 07:30:00,72.2,68.0,29.71,SSE,157,0.0,4.0,85,0.00,,,0.11,weatherlink.com 1.10,2013-05-19 12:30:00,
2013-05-19 07:45:00,72.7,68.0,29.71,South,183,0.0,4.0,84,0.00,,,0.11,weatherlink.com 1.10,2013-05-19 12:45:00,
2013-05-19 08:00:00,73.3,68.0,29.70,South,175,1.0,8.0,83,0.00,,,0.11,weatherlink.com 1.10,2013-05-19 13:00:00,
2013-05-19 08:15:00,73.9,68.0,29.70,SE,134,2.0,9.0,81,0.00,,,0.11,weatherlink.com 1.10,2013-05-19 13:15:00,
2013-05-19 08:30:00,74.5,68.0,29.70,SSE,155,1.0,10.0,80,0.00,,,0.11,weatherlink.com 1.10,2013-05-19 13:30:00,
2013-05-19 08:45:00,75.0,68.0,29.70,SE,125,1.0,13.0,78,0.00,,,0.11,weatherlink.com 1.10,2013-05-19 13:45:00,
2013-05-19 09:00:00,75.4,67.0,29.70,SE,142,1.0,13.0,76,0.00,,,0.11,weatherlink.com 1.10,2013-05-19 14:00:00,
2013-05-19 09:15:00,75.9,67.0,29.70,SSE,159,0.0,15.0,74,0.00,,,0.11,weatherlink.com 1.10,2013-05-19 14:15:00,
2013-05-19 09:30:00,76.6,67.0,29.70,South,181,4.0,11.0,73,0.00,,,0.11,weatherlink.com 1.10,2013-05-19 14:30:00,
2013-05-19 09:45:00,76.8,67.0,29.70,SSW,194,5.0,10.0,72,0.00,,,0.11,weatherlink.com 1.10,2013-05-19 14:45:00,
2013-05-19 10:01:00,77.5,67.0,29.70,SSE,154,7.0,13.0,71,0.00,,,0.11,weatherlink.com 1.10,2013-05-19 15:01:00,
2013-05-19 10:16:00,78.0,67.0,29.70,South,176,7.0,14.0,70,0.00,,,0.11,weatherlink.com 1.10,2013-05-19 15:16:00,
2013-05-19 10:31:00,77.8,67.0,29.69,ESE,123,4.0,11.0,70,0.00,,,0.11,weatherlink.com 1.10,2013-05-19 15:31:00,
2013-05-19 10:46:00,78.3,67.0,29.68,SSE,167,1.0,20.0,69,0.00,,,0.11,weatherlink.com 1.10,2013-05-19 15:46:00,
2013-05-19 11:01:00,78.8,68.0,29.68,SSE,152,8.0,18.0,69,0.00,,,0.11,weatherlink.com 1.10,2013-05-19 16:01:00,
2013-05-19 11:16:00,78.7,68.0,29.68,SE,128,5.0,19.0,69,0.00,,,0.11,weatherlink.com 1.10,2013-05-19 16:16:00,
2013-05-19 11:31:00,78.4,68.0,29.68,South,177,6.0,14.0,70,0.00,,,0.11,weatherlink.com 1.10,2013-05-19 16:31:00,
2013-05-19 11:46:00,78.8,69.0,29.68,SSW,199,7.0,13.0,71,0.00,,,0.11,weatherlink.com 1.10,2013-05-19 16:46:00,
2013-05-19 12:01:00,78.4,68.0,29.68,SSE,153,0.0,15.0,71,0.00,,,0.11,weatherlink.com 1.10,2013-05-19 17:01:00,
2013-05-19 12:16:00,79.2,69.0,29.67,SSE,154,0.0,16.0,70,0.00,,,0.11,weatherlink.com 1.10,2013-05-19 17:16:00,
2013-05-19 12:31:00,79.1,69.0,29.67,South,169,2.0,20.0,71,0.00,,,0.11,weatherlink.com 1.10,2013-05-19 17:31:00,
2013-05-19 12:46:00,80.3,70.0,29.66,SSE,161,4.0,14.0,70,0.00,,,0.11,weatherlink.com 1.10,2013-05-19 17:46:00,
2013-05-19 13:01:00,80.8,70.0,29.66,South,181,9.0,17.0,70,0.00,,,0.11,weatherlink.com 1.10,2013-05-19 18:01:00,
2013-05-19 13:16:00,81.6,70.0,29.65,South,183,1.0,16.0,68,0.00,,,0.11,weatherlink.com 1.10,2013-05-19 18:16:00,
2013-05-19 13:31:00,81.6,71.0,29.64,SSE,166,5.0,22.0,69,0.00,,,0.11,weatherlink.com 1.10,2013-05-19 18:31:00,
2013-05-19 13:46:00,81.0,70.0,29.64,South,180,8.0,15.0,69,0.00,,,0.11,weatherlink.com 1.10,2013-05-19 18:46:00,
2013-05-19 14:01:00,80.8,71.0,29.63,South,173,1.0,20.0,71,0.00,,,0.11,weatherlink.com 1.10,2013-05-19 19:01:00,
2013-05-19 14:16:00,81.8,71.0,29.62,SSW,194,4.0,16.0,69,0.00,,,0.11,weatherlink.com 1.10,2013-05-19 19:16:00,
2013-05-19 14:31:00,81.6,71.0,29.62,SSE,163,12.0,19.0,69,0.00,,,0.11,weatherlink.com 1.10,2013-05-19 19:31:00,
2013-05-19 14:46:00,81.0,71.0,29.62,SSE,165,2.0,17.0,71,0.00,,,0.11,weatherlink.com 1.10,2013-05-19 19:46:00,
2013-05-19 15:01:00,81.1,70.0,29.62,South,180,17.0,17.0,70,0.00,,,0.11,weatherlink.com 1.10,2013-05-19 20:01:00,
2013-05-19 15:16:00,80.9,71.0,29.62,SSE,148,4.0,21.0,71,0.00,,,0.11,weatherlink.com 1.10,2013-05-19 20:16:00,
2013-05-19 15:31:00,80.7,71.0,29.62,South,184,8.0,18.0,71,0.00,,,0.11,weatherlink.com 1.10,2013-05-19 20:31:00,
2013-05-19 15:46:00,80.3,71.0,29.61,SSW,194,4.0,14.0,73,0.00,,,0.11,weatherlink.com 1.10,2013-05-19 20:46:00,
2013-05-19 16:01:00,80.0,71.0,29.60,SSE,165,7.0,10.0,73,0.00,,,0.11,weatherlink.com 1.10,2013-05-19 21:01:00,
2013-05-19 16:16:00,80.3,71.0,29.59,SSE,167,4.0,11.0,73,0.00,,,0.11,weatherlink.com 1.10,2013-05-19 21:16:00,
2013-05-19 16:31:00,80.6,71.0,29.59,South,169,4.0,9.0,72,0.00,,,0.11,weatherlink.com 1.10,2013-05-19 21:31:00,
2013-05-19 16:46:00,81.0,71.0,29.59,SSW,202,5.0,16.0,71,0.00,,,0.11,weatherlink.com 1.10,2013-05-19 21:46:00,
2013-05-19 17:01:00,80.9,71.0,29.59,South,181,12.0,12.0,71,0.00,,,0.11,weatherlink.com 1.10,2013-05-19 22:01:00,
2013-05-19 17:16:00,80.4,71.0,29.59,SSW,198,2.0,11.0,72,0.00,,,0.11,weatherlink.com 1.10,2013-05-19 22:16:00,
2013-05-19 17:31:00,80.2,70.0,29.58,South,183,2.0,10.0,71,0.00,,,0.11,weatherlink.com 1.10,2013-05-19 22:31:00,
2013-05-19 17:46:00,80.1,70.0,29.59,South,180,0.0,15.0,71,0.00,,,0.11,weatherlink.com 1.10,2013-05-19 22:46:00,
2013-05-19 18:01:00,79.9,70.0,29.58,South,173,9.0,17.0,71,0.00,,,0.11,weatherlink.com 1.10,2013-05-19 23:01:00,
2013-05-19 18:16:00,79.7,70.0,29.56,SSE,149,7.0,14.0,71,0.00,,,0.11,weatherlink.com 1.10,2013-05-19 23:16:00,
2013-05-19 18:31:00,79.8,70.0,29.57,SSE,156,5.0,13.0,71,0.00,,,0.11,weatherlink.com 1.10,2013-05-19 23:31:00,
2013-05-19 18:46:00,79.8,70.0,29.57,SSW,198,6.0,12.0,71,0.00,,,0.11,weatherlink.com 1.10,2013-05-19 23:46:00,
2013-05-19 19:01:00,79.9,70.0,29.56,SSW,200,4.0,13.0,71,0.00,,,0.11,weatherlink.com 1.10,2013-05-20 00:01:00,
2013-05-19 19:16:00,79.8,70.0,29.59,SSE,157,11.0,21.0,71,0.00,,,0.11,weatherlink.com 1.10,2013-05-20 00:16:00,
2013-05-19 19:31:00,80.8,69.0,29.59,SSW,198,7.0,18.0,68,0.00,,,0.11,weatherlink.com 1.10,2013-05-20 00:31:00,
2013-05-19 19:46:00,80.7,69.0,29.61,South,187,1.0,8.0,68,0.00,,,0.11,weatherlink.com 1.10,2013-05-20 00:46:00,
2013-05-19 20:01:00,80.2,69.0,29.61,South,188,0.0,8.0,69,0.00,,,0.11,weatherlink.com 1.10,2013-05-20 01:01:00,
2013-05-19 20:16:00,79.7,69.0,29.61,South,184,0.0,13.0,70,0.00,,,0.11,weatherlink.com 1.10,2013-05-20 01:16:00,
2013-05-19 20:31:00,79.3,69.0,29.61,SSE,167,1.0,8.0,70,0.00,,,0.11,weatherlink.com 1.10,2013-05-20 01:31:00,
2013-05-19 20:46:00,79.0,69.0,29.61,South,178,3.0,9.0,71,0.00,,,0.11,weatherlink.com 1.10,2013-05-20 01:46:00,
2013-05-19 21:01:00,78.4,69.0,29.59,South,173,3.0,12.0,73,0.00,,,0.11,weatherlink.com 1.10,2013-05-20 02:01:00,
2013-05-19 21:16:00,76.8,69.0,29.60,SE,141,5.0,19.0,78,0.00,,,0.11,weatherlink.com 1.10,2013-05-20 02:16:00,
2013-05-19 21:31:00,75.9,68.0,29.59,SSW,198,7.0,26.0,77,0.00,,,0.11,weatherlink.com 1.10,2013-05-20 02:31:00,
2013-05-19 21:46:00,76.5,68.0,29.59,SE,144,9.0,20.0,76,0.00,,,0.11,weatherlink.com 1.10,2013-05-20 02:46:00,
2013-05-19 22:01:00,76.6,69.0,29.59,SSW,199,0.0,9.0,76,0.00,,,0.11,weatherlink.com 1.10,2013-05-20 03:01:00,
2013-05-19 22:16:00,77.3,68.0,29.59,South,188,2.0,13.0,74,0.00,,,0.11,weatherlink.com 1.10,2013-05-20 03:16:00,
2013-05-19 22:31:00,77.5,69.0,29.60,SSE,167,0.0,8.0,74,0.00,,,0.11,weatherlink.com 1.10,2013-05-20 03:31:00,
2013-05-19 22:46:00,77.7,68.0,29.61,South,175,2.0,11.0,73,0.00,,,0.11,weatherlink.com 1.10,2013-05-20 03:46:00,
2013-05-19 23:01:00,77.7,68.0,29.62,SSE,154,4.0,8.0,73,0.00,,,0.11,weatherlink.com 1.10,2013-05-20 04:01:00,
2013-05-19 23:16:00,77.5,68.0,29.64,South,183,2.0,6.0,73,0.00,,,0.11,weatherlink.com 1.10,2013-05-20 04:16:00,
2013-05-19 23:31:00,77.3,68.0,29.64,South,178,1.0,7.0,74,0.00,,,0.11,weatherlink.com 1.10,2013-05-20 04:31:00,
2013-05-19 23:46:00,76.7,68.0,29.64,South,186,0.0,5.0,75,0.00,,,0.11,weatherlink.com 1.10,2013-05-20 04:46:00,